DateTimeUTC,F1_A11,F1_S11,BsB_S11,BsG_S11,BsR_S11,BbsB_S11,BbsG_S11,BbsR_S11,BaB_A11,BaG_A11,BaR_A11,Tu_S11,T_S11,Uu_S11,U_S11,P_S11,T1_A11
2021-12-21T11:00:00Z,00000200,20000000,,,,,,,0000.15,-000.02,-000.25,20.6,27.1,01.9,01.3,0669.1,31.3
2021-12-21T11:01:00Z,00000200,20000000,,,,,,,-000.13,0000.17,0000.04,20.6,27.2,01.9,01.3,0669.1,31.3
2021-12-21T11:02:00Z,00000200,20000000,,,,,,,0000.24,-000.03,0000.18,20.6,27.2,01.9,01.3,0669.1,31.3
2021-12-21T11:03:00Z,00000200,60000000,,,,,,,-000.07,0000.14,-000.18,20.6,27.2,01.9,01.3,0669.1,31.3
2021-12-21T11:04:00Z,00000200,40000000,0000.31,0000.29,0000.13,0000.16,-000.12,0000.01,0000.16,0000.05,0000.45,20.8,27.1,02.1,01.4,0669.9,31.3
2021-12-21T11:05:00Z,00000200,00000000,0000.59,0000.05,-000.20,0000.64,-000.18,-000.08,0000.36,0000.20,-000.19,20.9,27.1,02.2,01.5,0670.0,31.3
2021-12-21T11:06:00Z,00000200,00000000,-000.04,0000.21,0000.23,0000.66,0000.20,0000.23,0000.20,0000.22,0000.11,20.8,27.1,02.3,01.6,0669.9,31.3
2021-12-21T11:07:00Z,00000200,00000000,0000.06,0000.21,-000.35,0000.03,0000.11,-000.12,0000.02,0000.21,0000.25,20.8,27.1,02.3,01.6,0669.9,31.2
2021-12-21T11:08:00Z,00000200,00000000,-000.10,0000.11,-000.09,-000.40,0000.22,-000.13,0000.29,0000.03,0000.11,20.8,27.0,02.4,01.6,0669.9,31.2
2021-12-21T11:09:00Z,00000200,00000000,0000.16,0000.10,0000.01,0000.62,0000.23,-000.07,0000.40,0000.46,0000.18,20.8,27.0,02.5,01.7,0669.8,31.2
2021-12-21T11:10:00Z,00000200,00000000,0000.12,0000.10,0000.15,-000.06,0000.07,0000.58,0000.19,0000.35,0000.10,20.8,27.0,02.4,01.7,0669.8,31.2
2021-12-21T11:11:00Z,00000200,00000000,0000.62,-000.29,0000.05,0000.16,0000.05,0000.02,0000.12,0000.06,0000.51,20.7,27.0,02.4,01.7,0669.8,31.2
2021-12-21T11:12:00Z,00000200,00000000,-000.20,0000.11,0000.07,0000.40,0000.36,0000.28,0000.35,-000.04,0000.04,20.7,27.0,02.5,01.7,0669.8,31.2
2021-12-21T11:13:00Z,00000200,00000000,-000.02,0000.13,-000.31,0000.35,0000.43,0000.07,-000.21,0000.10,-000.15,20.7,27.0,02.6,01.8,0669.8,31.2
2021-12-21T11:14:00Z,00000200,00000000,-000.88,0000.26,0000.58,0000.59,0000.23,0000.45,0000.05,0000.21,-000.04,20.7,27.0,02.5,01.7,0669.8,31.2
2021-12-21T11:15:00Z,00000200,00000000,0000.07,0000.16,-000.32,0000.26,0000.31,0000.34,0000.30,0000.17,0000.35,20.7,27.0,02.5,01.7,0669.8,31.2
2021-12-21T11:16:00Z,00000200,00000000,0000.27,0000.12,0000.10,0000.33,-000.10,-000.26,0000.05,0000.05,0000.09,20.6,27.0,02.6,01.8,0669.8,31.2
2021-12-21T11:17:00Z,00000200,00000000,0000.37,-000.02,-000.07,0000.53,-000.12,-000.26,0000.06,-000.14,-000.06,20.6,26.9,02.7,01.9,0669.8,31.2
2021-12-21T11:18:00Z,00000200,00000000,0000.47,0000.10,0000.07,0000.55,-000.02,-000.02,0000.12,0000.25,0000.35,20.6,26.9,02.7,01.9,0669.8,31.2
2021-12-21T11:19:00Z,00000200,00000000,0000.25,0000.18,0000.00,0000.16,-000.11,-000.24,0000.15,0000.24,-000.43,20.6,26.9,02.8,01.9,0669.8,31.2
2021-12-21T11:20:00Z,00000200,00000000,0000.31,0000.20,0000.22,0000.08,-000.12,0000.16,0000.36,0000.14,0000.36,20.5,26.9,02.7,01.8,0669.8,31.2
2021-12-21T11:21:00Z,00000200,00000000,0000.95,-000.11,-000.01,0000.82,0000.17,0000.10,0000.30,0000.08,0000.08,20.5,26.9,02.7,01.8,0669.8,31.2
2021-12-21T11:22:00Z,00000200,00000000,-000.17,0000.10,-000.00,0000.63,-000.01,0000.24,0000.04,0000.17,0000.23,20.5,26.9,02.8,01.9,0669.8,31.2
2021-12-21T11:23:00Z,00000200,00000000,0000.17,0000.18,-000.02,-000.69,0000.36,-000.34,0000.13,0000.61,-000.03,20.5,26.8,02.8,01.9,0669.8,31.2
2021-12-21T11:24:00Z,00000200,00000000,0000.33,0000.32,0000.14,0001.11,0000.07,0000.27,0000.16,-000.32,0000.26,20.5,26.8,02.8,01.9,0669.8,31.2
2021-12-21T11:25:00Z,00000200,00000000,-000.23,-000.10,0000.24,-000.27,-000.06,0000.19,0000.27,0000.26,0000.01,20.5,26.8,02.9,02.0,0669.8,31.2
2021-12-21T11:26:00Z,00000200,00000000,0000.41,0000.52,-000.50,0000.39,0000.05,-000.30,0000.16,0000.32,0000.16,20.5,26.8,02.9,02.0,0669.8,31.2
2021-12-21T11:27:00Z,00000200,00000000,0000.58,0000.50,0000.20,0000.09,0000.01,0000.02,0000.21,-000.02,0000.54,20.5,26.8,02.9,02.0,0669.8,31.2
2021-12-21T11:28:00Z,00000200,00000000,-000.17,0000.34,0000.38,0000.82,0000.12,0000.54,0000.21,0000.46,-000.07,20.6,26.8,02.9,02.0,0669.8,31.2
2021-12-21T11:29:00Z,00000200,00000000,-000.08,0000.04,-000.17,0000.50,-000.08,0000.31,0000.38,0000.27,0000.34,20.7,26.9,02.9,02.0,0669.8,31.2
2021-12-21T11:30:00Z,00000200,00000000,0000.24,-000.01,-000.01,0000.27,-000.22,0000.21,0000.00,0000.23,0000.17,20.8,26.9,02.9,02.0,0669.8,31.2
2021-12-21T11:31:00Z,00000200,00000000,0000.47,0000.30,0000.21,0000.79,0000.20,0000.26,0000.29,-000.06,0000.03,20.9,27.0,02.9,02.0,0669.8,31.3
2021-12-21T11:32:00Z,00000200,00000000,-000.33,0000.18,0000.06,0000.00,-000.06,0000.08,0000.26,0000.65,0000.07,21.0,27.0,03.0,02.1,0669.8,31.3
2021-12-21T11:33:00Z,00000200,00000000,-000.33,-000.16,0000.00,-000.04,0000.06,0000.04,0000.38,-000.13,0000.12,21.0,27.1,03.1,02.1,0669.8,31.3
2021-12-21T11:34:00Z,00000200,00000000,-000.34,0000.12,-000.06,0000.61,0000.18,0000.16,-000.07,0000.52,0000.42,21.0,27.1,03.0,02.1,0669.8,31.3
2021-12-21T11:35:00Z,00000200,00000000,0000.40,-000.05,-000.32,0000.23,0000.04,0000.21,0000.42,0000.23,0000.46,21.0,27.1,03.0,02.1,0669.8,31.3
2021-12-21T11:36:00Z,00000200,00000000,-000.43,-000.07,0000.20,0000.33,0000.13,-000.06,-000.02,0000.11,-000.23,21.0,27.1,03.2,02.2,0669.8,31.3
2021-12-21T11:37:00Z,00000200,00000000,0000.55,0000.06,-000.25,0000.53,0000.43,-000.39,0000.25,-000.01,0000.06,21.0,27.1,03.1,02.1,0669.8,31.3
2021-12-21T11:38:00Z,00000200,00000000,-000.08,-000.10,0000.12,0000.24,0000.24,0000.04,0000.31,0000.31,0000.35,21.0,27.1,03.2,02.2,0669.8,31.3
2021-12-21T11:39:00Z,00000200,00000000,0000.16,0000.35,0000.08,0000.47,0000.21,-000.22,0000.93,0001.13,0001.07,20.9,27.1,03.2,02.2,0670.0,31.3
2021-12-21T11:40:00Z,00000200,00000000,-000.38,0000.54,0000.04,0000.89,0000.16,0000.18,0000.37,0000.37,0000.26,20.9,27.1,03.3,02.3,0670.0,31.3
2021-12-21T11:41:00Z,00000200,00000000,-001.06,0000.36,0000.26,-000.06,0000.18,0000.27,0000.44,0000.14,0000.25,20.9,27.0,03.3,02.3,0670.0,31.3
2021-12-21T11:42:00Z,00000200,00000000,0000.04,0000.21,-000.00,0000.37,0000.24,0000.14,0000.02,-000.23,0000.18,21.0,27.1,03.3,02.3,0670.0,31.3
2021-12-21T11:43:00Z,00000200,00000000,0001.08,0000.18,0000.14,0000.67,0000.18,0000.01,0000.27,0000.88,0000.27,21.0,27.1,03.3,02.3,0670.0,31.2
2021-12-21T11:44:00Z,00000200,00000000,0000.81,-000.25,-000.09,0000.27,0000.18,0000.40,0000.49,0000.07,0000.17,21.0,27.1,03.3,02.3,0670.0,31.2
2021-12-21T11:45:00Z,00000200,00000000,0000.04,0000.17,0000.28,0000.99,0000.38,0000.01,0000.13,0000.24,0000.10,21.0,27.1,03.3,02.3,0670.0,31.2
2021-12-21T11:46:00Z,00000200,00000000,0000.75,0000.12,0000.01,0000.71,-000.14,0000.28,0000.05,-000.13,0000.16,20.9,27.1,03.4,02.3,0670.0,31.2
2021-12-21T11:47:00Z,00000200,00000000,-000.79,0000.38,-000.34,0000.44,-000.04,0000.00,0000.42,0000.30,0000.02,20.9,27.1,03.3,02.3,0670.0,31.2
2021-12-21T11:48:00Z,00000200,00000000,0000.02,0000.31,0000.02,0000.33,0000.04,0000.21,0000.11,0000.37,0000.10,20.9,27.1,03.3,02.3,0670.0,31.2
2021-12-21T11:49:00Z,00000200,00000000,0000.06,0000.11,0000.15,0001.15,0000.17,0000.21,0000.25,0000.11,0000.21,20.8,27.1,03.4,02.3,0670.0,31.2
2021-12-21T11:50:00Z,00000200,00000000,0000.23,0000.27,-000.55,0000.24,0000.20,-000.01,0000.06,0000.04,-000.05,20.8,27.0,03.3,02.3,0670.0,31.2
2021-12-21T11:51:00Z,00000200,00000000,-000.82,0000.18,-000.00,0001.01,-000.00,0000.37,0000.06,0000.07,-000.07,20.8,27.0,03.4,02.3,0670.0,31.2
2021-12-21T11:52:00Z,00000200,00000000,0000.24,0000.37,-000.29,0000.64,0000.03,0000.10,0000.29,0000.23,0000.30,20.8,27.0,03.3,02.2,0670.0,31.2
2021-12-21T11:53:00Z,00000200,00000000,0000.27,-000.18,0000.05,0000.30,-000.20,0000.23,0000.01,0000.26,0000.31,20.8,27.0,03.2,02.2,0670.0,31.2
2021-12-21T11:54:00Z,00000200,00000000,0000.52,-000.05,-000.29,0000.69,0000.19,0000.25,-000.06,-000.00,-000.16,20.8,27.0,03.3,02.3,0670.0,31.2
2021-12-21T11:55:00Z,00000200,00000000,0000.01,0000.52,-000.22,0000.20,0000.13,-000.09,0000.17,-000.16,-000.11,20.8,27.0,03.3,02.3,0670.0,31.2
2021-12-21T11:56:00Z,00000200,00000000,-000.69,0000.22,0000.03,-000.30,0000.16,-000.25,-000.22,-000.45,0000.23,20.8,27.0,03.2,02.2,0670.0,31.2
2021-12-21T11:57:00Z,00000200,40000000,,,,,,,-000.39,-000.20,-000.62,20.8,27.0,03.2,02.2,0670.0,31.2
2021-12-21T11:58:00Z,00000200,60000000,,,,,,,0000.08,0000.43,0000.21,20.6,27.1,02.8,01.9,0669.0,31.2
2021-12-21T11:59:00Z,00000200,20000000,,,,,,,0000.14,0000.13,0000.45,20.6,27.2,02.8,01.9,0669.0,31.2
